Eveleth, MN

1:44 PM CDT on July 23, 2017 (GMT -0500)
Eveleth-Virginia Municipal

Weather History for KEVM - November, 2013

Change the Weather History Date:

Thursday, November 14, 2013

  Actual Average Record
Temperature  
Mean Temperature 34 °F -  
Max Temperature 41 °F 34 °F 55 °F (2001)
Min Temperature 28 °F 20 °F -4 °F (1996)
Degree Days  
Heating Degree Days 30    
Moisture  
Dew Point 30 °F    
Average Humidity 88    
Maximum Humidity 100    
Minimum Humidity 65    
Precipitation  
Precipitation 0.00 in - - ()
Sea Level Pressure  
Sea Level Pressure 29.75 in    
Wind  
Wind Speed 1 mph (NW)    
Max Wind Speed 5 mph    
Max Gust Speed -    
Visibility 10 miles    
Events      
Averages and records for this station are not official NWS values.
T = Trace of Precipitation, MM = Missing Value Source: NWS Daily Summary

Daily Weather History Graph

Daily Weather History Graph

Search for Another Location

Airport or City:

Trip Planner

Search our weather history database for the weather conditions in past years. The results will help you decide how hot, cold, wet, or windy it might be!

Date:

Astronomy

Nov. 14, 2013 Rise Set
Actual Time 7:13 AM CST 4:34 PM CST
Civil Twilight 6:40 AM CST 5:08 PM CST
Nautical Twilight 6:02 AM CST 5:45 PM CST
Astronomical Twilight 5:26 AM CST 6:21 PM CST
Moon 3:05 PM CST (11/14) 3:58 AM CST (11/14)
Length of Visible Light 10h 28m
Length of Day
9h 21m
Waxing Gibbous, 92% of the Moon is Illuminated
Nov 14
Waxing Gibbous
Nov 17
Full
Nov 25
Last Quarter
Dec 2
New
Dec 9
First Quarter

Hourly Weather History & Observations

Time (CST) Temp. Windchill Dew Point Humidity Pressure Visibility Wind Dir Wind Speed Gust Speed Precip Events Conditions
12:07 AM 30.2 °F - 26.6 °F 86% 29.77 in 10.0 mi Calm Calm - N/A   Clear
12:27 AM 30.2 °F - 28.4 °F 93% 29.77 in 10.0 mi Calm Calm - N/A   Clear
12:46 AM 32.0 °F - 30.2 °F 93% 29.76 in 10.0 mi Calm Calm - N/A   Clear
1:07 AM 28.4 °F - 26.6 °F 93% 29.76 in 10.0 mi Calm Calm - N/A   Clear
1:27 AM 28.4 °F - 28.4 °F 100% 29.76 in 10.0 mi Calm Calm - N/A   Clear
1:46 AM 28.4 °F - 26.6 °F 93% 29.76 in 10.0 mi Calm Calm - N/A   Clear
2:07 AM 30.2 °F - 28.4 °F 93% 29.76 in 10.0 mi Calm Calm - N/A   Scattered Clouds
2:26 AM 28.4 °F - 26.6 °F 93% 29.75 in 10.0 mi Calm Calm - N/A   Scattered Clouds
2:47 AM 28.4 °F - 26.6 °F 93% 29.75 in 10.0 mi Calm Calm - N/A   Scattered Clouds
3:07 AM 28.4 °F - 26.6 °F 93% 29.76 in 10.0 mi Calm Calm - N/A   Mostly Cloudy
3:26 AM 28.4 °F - 26.6 °F 93% 29.75 in 10.0 mi Calm Calm - N/A   Scattered Clouds
3:47 AM 30.2 °F - 30.2 °F 100% 29.75 in 10.0 mi Calm Calm - N/A   Clear
4:06 AM 30.2 °F - 28.4 °F 93% 29.75 in 10.0 mi Calm Calm - N/A   Clear
4:27 AM 30.2 °F - 30.2 °F 100% 29.76 in 10.0 mi Calm Calm - N/A   Clear
4:46 AM 30.2 °F - 30.2 °F 100% 29.76 in 10.0 mi Calm Calm - N/A   Clear
5:07 AM 30.2 °F 26.7 °F 30.2 °F 100% 29.75 in 10.0 mi SW 3.5 mph - N/A   Clear
5:27 AM 28.4 °F 24.6 °F 28.4 °F 100% 29.76 in 10.0 mi West 3.5 mph - N/A   Clear
5:46 AM 28.4 °F 23.3 °F 28.4 °F 100% 29.75 in 10.0 mi West 4.6 mph - N/A   Clear
6:07 AM 32.0 °F 27.5 °F 32.0 °F 100% 29.75 in 10.0 mi WNW 4.6 mph - N/A   Clear
6:27 AM 32.0 °F 27.5 °F 32.0 °F 100% 29.76 in 10.0 mi West 4.6 mph - N/A   Scattered Clouds
6:46 AM 32.0 °F 27.5 °F 32.0 °F 100% 29.76 in 10.0 mi West 4.6 mph - N/A   Scattered Clouds
7:07 AM 32.0 °F - 32.0 °F 100% 29.75 in 10.0 mi Calm Calm - N/A   Scattered Clouds
7:27 AM 30.2 °F - 30.2 °F 100% 29.75 in 10.0 mi Calm Calm - N/A   Scattered Clouds
7:46 AM 30.2 °F - 30.2 °F 100% 29.76 in 10.0 mi Calm Calm - N/A   Scattered Clouds
8:07 AM 30.2 °F - 30.2 °F 100% 29.76 in 10.0 mi Calm Calm - N/A   Mostly Cloudy
8:27 AM 30.2 °F - 30.2 °F 100% 29.76 in 10.0 mi Calm Calm - N/A   Overcast
8:46 AM 32.0 °F - 32.0 °F 100% 29.77 in 10.0 mi Calm Calm - N/A   Mostly Cloudy
9:07 AM 32.0 °F - 32.0 °F 100% 29.77 in 10.0 mi Calm Calm - N/A   Mostly Cloudy
9:27 AM 33.8 °F - 32.0 °F 93% 29.77 in 10.0 mi Calm Calm - N/A   Overcast
9:47 AM 33.8 °F - 32.0 °F 93% 29.77 in 10.0 mi Calm Calm - N/A   Mostly Cloudy
10:06 AM 35.6 °F - 32.0 °F 87% 29.77 in 10.0 mi Calm Calm - N/A   Mostly Cloudy
10:27 AM 35.6 °F - 32.0 °F 87% 29.77 in 10.0 mi Calm Calm - N/A   Overcast
10:46 AM 35.6 °F 31.7 °F 30.2 °F 81% 29.76 in 10.0 mi NE 4.6 mph - N/A   Overcast
11:07 AM 37.4 °F 34.9 °F 30.2 °F 75% 29.75 in 10.0 mi ENE 3.5 mph - N/A   Mostly Cloudy
11:27 AM 39.2 °F 37.0 °F 30.2 °F 70% 29.75 in 10.0 mi NE 3.5 mph - N/A   Mostly Cloudy
11:46 AM 41.0 °F 39.0 °F 30.2 °F 65% 29.74 in 10.0 mi NNE 3.5 mph - N/A   Mostly Cloudy
12:07 PM 39.2 °F - 30.2 °F 70% 29.73 in 10.0 mi Calm Calm - N/A   Scattered Clouds
12:26 PM 39.2 °F - 30.2 °F 70% 29.73 in 10.0 mi Calm Calm - N/A   Mostly Cloudy
12:47 PM 39.2 °F 37.0 °F 30.2 °F 70% 29.75 in 10.0 mi WNW 3.5 mph - N/A   Overcast
1:07 PM 39.2 °F 35.9 °F 30.2 °F 70% 29.74 in 10.0 mi NW 4.6 mph - N/A   Overcast
1:26 PM 39.2 °F 37.0 °F 30.2 °F 70% 29.74 in 10.0 mi North 3.5 mph - N/A   Overcast
1:47 PM 41.0 °F 39.0 °F 32.0 °F 70% 29.73 in 10.0 mi West 3.5 mph - N/A   Mostly Cloudy
2:07 PM 41.0 °F - 30.2 °F 65% 29.71 in 10.0 mi Calm Calm - N/A   Scattered Clouds
2:26 PM 39.2 °F - 30.2 °F 70% 29.71 in 10.0 mi Calm Calm - N/A   Clear
2:47 PM 39.2 °F - 30.2 °F 70% 29.71 in 10.0 mi Calm Calm - N/A   Mostly Cloudy
3:07 PM 39.2 °F - 30.2 °F 70% 29.72 in 10.0 mi Calm Calm - N/A   Overcast
3:26 PM 39.2 °F 35.9 °F 30.2 °F 70% 29.72 in 10.0 mi NW 4.6 mph - N/A   Overcast
3:47 PM 39.2 °F 35.9 °F 30.2 °F 70% 29.73 in 10.0 mi WNW 4.6 mph - N/A   Overcast
4:07 PM 39.2 °F 35.9 °F 30.2 °F 70% 29.74 in 10.0 mi NNW 4.6 mph - N/A   Overcast
4:26 PM 37.4 °F - 30.2 °F 75% 29.73 in 10.0 mi Calm Calm - N/A   Overcast
4:47 PM 35.6 °F - 30.2 °F 81% 29.73 in 10.0 mi Calm Calm - N/A   Mostly Cloudy
5:07 PM 33.8 °F - 30.2 °F 87% 29.73 in 10.0 mi Calm Calm - N/A   Mostly Cloudy
5:27 PM 35.6 °F - 30.2 °F 81% 29.74 in 10.0 mi Calm Calm - N/A   Overcast
5:47 PM 32.0 °F - 28.4 °F 87% 29.74 in 10.0 mi Calm Calm - N/A   Mostly Cloudy
6:07 PM 32.0 °F - 28.4 °F 87% 29.73 in 10.0 mi Calm Calm - N/A   Scattered Clouds
6:27 PM 30.2 °F - 28.4 °F 93% 29.74 in 10.0 mi Calm Calm - N/A   Clear
6:47 PM 30.2 °F - 28.4 °F 93% 29.75 in 10.0 mi Calm Calm - N/A   Mostly Cloudy
7:07 PM 30.2 °F - 28.4 °F 93% 29.74 in 10.0 mi Calm Calm - N/A   Overcast
7:27 PM 30.2 °F - 28.4 °F 93% 29.74 in 10.0 mi Calm Calm - N/A   Overcast
7:47 PM 32.0 °F - 30.2 °F 93% 29.74 in 10.0 mi Calm Calm - N/A   Overcast
8:07 PM 32.0 °F - 30.2 °F 93% 29.74 in 10.0 mi Calm Calm - N/A   Overcast
8:27 PM 32.0 °F - 30.2 °F 93% 29.74 in 10.0 mi Calm Calm - N/A   Overcast
8:46 PM 32.0 °F - 30.2 °F 93% 29.74 in 10.0 mi Calm Calm - N/A   Overcast
9:07 PM 32.0 °F - 30.2 °F 93% 29.75 in 10.0 mi Calm Calm - N/A   Overcast
9:27 PM 32.0 °F - 30.2 °F 93% 29.74 in 10.0 mi Calm Calm - N/A   Overcast
9:46 PM - - - N/A% - 10.0 mi Calm Calm - N/A   Overcast
10:07 PM 32.0 °F - 30.2 °F 93% 29.73 in 10.0 mi Calm Calm - N/A   Overcast
10:27 PM 32.0 °F - 30.2 °F 93% 29.73 in 10.0 mi Calm Calm - N/A   Overcast
10:47 PM 32.0 °F - 30.2 °F 93% 29.73 in 10.0 mi Calm Calm - N/A   Overcast
11:07 PM 32.0 °F - 28.4 °F 87% 29.72 in 10.0 mi Calm Calm - N/A   Overcast
11:27 PM 32.0 °F - 30.2 °F 93% 29.73 in 10.0 mi Calm Calm - N/A   Overcast
11:47 PM 32.0 °F - 30.2 °F 93% 29.72 in 10.0 mi Calm Calm - N/A   Overcast